User: anonymous   Login
Location: Unspecified
(0.0000°N, 0.0000°E)
Time: 10:44:50
(UTC+02:00)
Language:

Cosmos 1125 Rocket - Orbit

View from above orbital plane
View from above orbital plane
View from above satellite
View from above satellite

Ground track
Ground track

The orbit data is extracted from the following two-line orbital elements,

1 11511U 79078B   18116.41811982 -.00000004  00000-0  74767-5 0  9992
2 11511  74.0352  99.5639 0016957 266.9581  92.9632 14.36807627 23604
Epoch (UTC): 26 April 2018 10:02:05
Eccentricity: 0.0016957
inclination: 74.0352°
perigee height: 757 km
apogee height: 781 km
right ascension of ascending node: 99.5639°
argument of perigee: 266.9581°
revolutions per day: 14.36807627
mean anomaly at epoch: 92.9632°
orbit number at epoch: 2360

The dashed part of the orbit path shows where the satellite is in the earth's shadow,  

DLR